Regional Weather Roundup
Issued by NWS

Home | Current Version | Previous Version | Graphics & Text | Print | Product List | Glossary On
Versions: 1 2 3 4 5 6 7 8 9 10 11 12 13 14 15 16 17 18 19 20 21 22 23 24 25 26 27 28 29 30 31 32 33 34 35 36 37 38 39 40 41 42 43 44 45 46 47 48 49 50
015
ASUS43 KOAX 221510
RWRNE

WEATHER ROUNDUP FOR NEBRASKA
NATIONAL WEATHER SERVICE OMAHA NE
1000 AM CDT MON MAY 22 2017

NOTES: SATELLITE DATA IS BEING USED TO AUGMENT CLOUD COVER ABOVE
       12000 FEET.
       "FAIR" INDICATES FEW OR NO CLOUDS BELOW 12,000 FEET WITH NO
       SIGNIFICANT WEATHER AND/OR OBSTRUCTIONS TO VISIBILITY.

  * THESE STATIONS DO NOT REPORT WEATHER SUCH AS RAIN...SNOW OR FOG.

NEZ001>004-019>022-054>056-221600-
NEBRASKA PANHANDLE

CITY           SKY/WX    TMP DP  RH WIND       PRES   REMARKS
SCOTTSBLUFF    CLOUDY    51  40  65 NW9       30.10S
ALLIANCE       CLOUDY    54  41  61 W13       30.06R
CHADRON        PTSUNNY   52  44  74 W12       30.06S
GORDON         LGT RAIN  50  43  77 N9        30.03S
KIMBALL        SUNNY     57  39  51 W16G22    30.13S
SIDNEY         SUNNY     57  42  57 W15       30.11S
$$

NEZ057>060-069>072-079>082-221600-
SOUTHWEST NEBRASKA

CITY           SKY/WX    TMP DP  RH WIND       PRES   REMARKS
NORTH PLATTE   SUNNY     60  48  64 W12       30.04F
IMPERIAL       SUNNY     60  46  59 W12       30.07F
LEXINGTON      CLOUDY    59  47  65 W9        30.03F
MCCOOK         CLOUDY    59  49  69 W8        30.06S
OGALLALA       SUNNY     58  49  72 W12       30.07S
$$

NEZ005>010-023>029-035>040-094-221600-
NORTH CENTRAL NEBRASKA

CITY           SKY/WX    TMP DP  RH WIND       PRES   REMARKS
VALENTINE      CLOUDY    55  41  59 NW12      30.00S
AINSWORTH      MOSUNNY   59  45  60 N13       29.99F
BROKEN BOW     SUNNY     62  46  55 NW16      30.00F
O`NEILL        SUNNY     62  44  52 W15       29.97R
ORD            SUNNY     62  45  53 NW12      29.98F
THEDFORD       PTSUNNY   60  45  57 NW12G20   30.03S
$$

NEZ041-046>049-061>064-073>077-083>087-221600-
SOUTH CENTRAL NEBRASKA

CITY           SKY/WX    TMP DP  RH WIND       PRES   REMARKS
GRAND ISLAND   MOSUNNY   61  48  62 W10       30.00F
AURORA         SUNNY     63  47  56 W13       29.99
HASTINGS       CLOUDY    63  46  54 NW13      30.01F
HEBRON         LGT RAIN  58  54  86 SW7       30.02R
HOLDREGE       CLOUDY    60  45  57 NW8       30.03F
KEARNEY *      MOSUNNY   61  43  51 NW8       30.02F
YORK           CLOUDY    63  48  59 W15       29.99F
$$

NEZ011>018-030>034-042>045-221600-
NORTHEAST NEBRASKA

CITY           SKY/WX    TMP DP  RH WIND       PRES   REMARKS
NORFOLK        SUNNY     62  46  55 NW9       29.94F
ALBION         SUNNY     63  45  51 NW8       29.96F
BLAIR          CLOUDY    63  50  63 SW10      29.94F
FREMONT        SUNNY     63  51  64 W12       29.96S
TEKAMAH        SUNNY     64  50  60 W13       29.93S
WAYNE          SUNNY     63  47  57 W9        29.93S
$$

NEZ050>053-065>068-078-088>093-221600-
SOUTHEAST NEBRASKA

CITY           SKY/WX    TMP DP  RH WIND       PRES   REMARKS
LINCOLN        MOSUNNY   61  50  67 W9        29.99R
OMAHA EPPLEY   CLOUDY    66  48  52 VRB7      29.94F
BEATRICE       LGT RAIN  60  55  83 W8        30.00F
FALLS CITY     PTSUNNY   63  57  81 SW8       29.99F
NEBRASKA CITY  PTSUNNY   62  52  71 W13       29.98S
PLATTSMOUTH    CLOUDY    62  48  60 W9        29.97S
$$

NEZ044-045-051>053-067-221600-
OMAHA AREA

CITY           SKY/WX    TMP DP  RH WIND       PRES   REMARKS
OMAHA EPPLEY   CLOUDY    66  48  52 VRB7      29.94F
BLAIR          CLOUDY    63  50  63 SW10      29.94F
FREMONT        SUNNY     63  51  64 W12       29.96S
MILLARD        PTSUNNY   65  51  62 W7        29.96F
OFFUTT AFB     MOSUNNY   61  50  67 W7        29.95S
PLATTSMOUTH    CLOUDY    62  48  60 W9        29.97S
WAHOO          FAIR      65  49  55 W10       29.95F
$$




USA.gov is the U.S. government's official web portal to all federal, state and local government web resources and services.